Mobridge, SD

11:06 AM CDT on September 24, 2017 (GMT -0500)
Mobridge Municipal

Weather History for KMBG - May, 2013

Change the Weather History Date:

Saturday, May 25, 2013

  Actual Average Record
Temperature  
Mean Temperature 65 °F 59 °F  
Max Temperature 80 °F 71 °F 96 °F (1941)
Min Temperature 50 °F 47 °F 35 °F (2000)
Degree Days  
Heating Degree Days 0 7  
Month to date heating degree days 274 254  
Since 1 July heating degree days 8172 7849  
Cooling Degree Days 0 1  
Month to date cooling degree days 13 7  
Year to date cooling degree days 13 8  
Growing Degree Days 16 (Base 50)    
Moisture  
Dew Point 54 °F    
Average Humidity 69    
Maximum Humidity 89    
Minimum Humidity 48    
Precipitation  
Precipitation 0.01 in 0.10 in 1.80 in (1960)
Month to date precipitation 2.77 2.25  
Year to date precipitation 5.82 5.45  
Sea Level Pressure  
Sea Level Pressure 29.94 in    
Wind  
Wind Speed 16 mph (East)    
Max Wind Speed 31 mph    
Max Gust Speed 38 mph    
Visibility 10 miles    
Events Rain , Thunderstorm    
T = Trace of Precipitation, MM = Missing Value Source: NWS Daily Summary

Daily Weather History Graph

Daily Weather History Graph

Search for Another Location

Airport or City:

Trip Planner

Search our weather history database for the weather conditions in past years. The results will help you decide how hot, cold, wet, or windy it might be!

Date:

Astronomy

May. 25, 2013 Rise Set
Actual Time 6:00 AM CDT 9:17 PM CDT
Civil Twilight 5:24 AM CDT 9:53 PM CDT
Nautical Twilight 4:37 AM CDT 10:40 PM CDT
Astronomical Twilight 3:39 AM CDT 11:39 PM CDT
Moon 10:06 PM CDT (5/25) 6:30 AM CDT (5/25)
Length of Visible Light 16h 28m
Length of Day
15h 16m
Full, 100% of the Moon is Illuminated
May 25
Full
May 31
Last Quarter
Jun 8
New
Jun 16
First Quarter
Jun 23
Full

Hourly Weather History & Observations

Time (CDT) Temp. Heat Index Dew Point Humidity Pressure Visibility Wind Dir Wind Speed Gust Speed Precip Events Conditions
12:52 AM 55.0 °F - 50.0 °F 83% 29.98 in 10.0 mi East 11.5 mph - N/A   Clear
1:52 AM 54.0 °F - 48.9 °F 83% 29.94 in 10.0 mi ENE 11.5 mph - N/A   Clear
2:52 AM 53.1 °F - 48.9 °F 86% 29.92 in 10.0 mi ENE 10.4 mph - N/A   Clear
3:52 AM 51.1 °F - 48.0 °F 89% 29.93 in 10.0 mi ENE 8.1 mph - N/A   Clear
4:52 AM 51.1 °F - 48.0 °F 89% 29.96 in 10.0 mi East 6.9 mph - N/A   Clear
5:52 AM 51.1 °F - 48.0 °F 89% 29.97 in 9.0 mi ENE 9.2 mph - N/A   Clear
6:52 AM 51.1 °F - 48.0 °F 89% 29.97 in 10.0 mi ENE 10.4 mph - N/A   Clear
7:52 AM 55.0 °F - 50.0 °F 83% 29.97 in 10.0 mi East 8.1 mph - N/A   Clear
8:52 AM 60.1 °F - 52.0 °F 75% 29.96 in 10.0 mi ENE 8.1 mph - N/A   Clear
9:52 AM 64.0 °F - 54.0 °F 70% 29.96 in 10.0 mi East 6.9 mph - N/A   Clear
10:52 AM 68.0 °F - 55.9 °F 65% 29.95 in 10.0 mi ESE 9.2 mph - N/A   Clear
11:52 AM 73.0 °F - 57.9 °F 59% 29.95 in 10.0 mi SE 13.8 mph - N/A   Clear
12:52 PM 75.9 °F - 59.0 °F 56% 29.94 in 10.0 mi SE 20.7 mph - N/A   Clear
1:52 PM 78.1 °F - 59.0 °F 52% 29.91 in 10.0 mi ESE 24.2 mph 29.9 mph N/A   Clear
2:52 PM 78.1 °F - 59.0 °F 52% 29.90 in 10.0 mi SE 17.3 mph 24.2 mph N/A   Clear
3:52 PM 80.1 °F 80.7 °F 59.0 °F 48% 29.88 in 10.0 mi SE 19.6 mph 27.6 mph N/A   Clear
4:52 PM 79.0 °F - 59.0 °F 50% 29.89 in 10.0 mi SE 20.7 mph 27.6 mph N/A   Partly Cloudy
5:52 PM 79.0 °F - 57.9 °F 48% 29.86 in 10.0 mi ESE 23.0 mph - N/A   Clear
6:52 PM 75.0 °F - 57.9 °F 55% 29.87 in 10.0 mi ESE 18.4 mph 27.6 mph N/A   Clear
7:52 PM 73.0 °F - 59.0 °F 61% 29.90 in 10.0 mi ESE 19.6 mph 26.5 mph N/A   Clear
8:52 PM 68.0 °F - 57.9 °F 70% 29.87 in 10.0 mi East 27.6 mph 36.8 mph N/A   Scattered Clouds
9:52 PM 61.0 °F - 55.0 °F 81% 29.92 in 10.0 mi East 26.5 mph 34.5 mph N/A   Clear
10:52 PM 57.9 °F - 54.0 °F 87% 29.95 in 9.0 mi East 19.6 mph 31.1 mph 0.00 in Rain , Thunderstorm Light Rain
11:22 PM 57.2 °F - 53.6 °F 88% 30.00 in 9.0 mi NNE 18.4 mph 26.5 mph 0.00 in Thunderstorm Overcast
11:32 PM 57.2 °F - 53.6 °F 88% 30.01 in 9.0 mi NNE 12.7 mph 21.9 mph 0.00 in   Overcast
11:52 PM 57.0 °F - 54.0 °F 89% 29.99 in 9.0 mi NE 21.9 mph - 0.00 in Thunderstorm Overcast